TimePST,TemperatureF,Dew PointF,Humidity,Sea Level PressureIn,VisibilityMPH,Wind Direction,Wind SpeedMPH,Gust SpeedMPH,PrecipitationIn,Events,Conditions,WindDirDegrees,DateUTC
12:56 AM,24.1,21.0,88,30.17,8.0,South,3.5,-,N/A,,Clear,170,2013-02-03 08:56:00
1:56 AM,21.9,19.9,92,30.15,9.0,Calm,Calm,-,N/A,,Clear,0,2013-02-03 09:56:00
2:56 AM,23.0,19.9,88,30.15,8.0,SW,3.5,-,N/A,,Clear,220,2013-02-03 10:56:00
3:53 AM,23.0,19.4,86,30.25,10.0,SW,3.5,-,N/A,,Scattered Clouds,220,2013-02-03 11:53:00
3:56 AM,23.0,19.9,88,30.14,10.0,SW,3.5,-,N/A,,Mostly Cloudy,220,2013-02-03 11:56:00
4:12 AM,21.2,19.4,93,30.25,0.8,SW,4.6,-,N/A,,Mist,220,2013-02-03 12:12:00
4:24 AM,21.2,19.4,93,30.25,0.2,SW,3.5,-,N/A,Fog,Light Freezing Fog,230,2013-02-03 12:24:00
4:37 AM,21.2,19.4,93,30.25,0.5,SW,3.5,-,N/A,Fog,Light Freezing Fog,220,2013-02-03 12:37:00
4:52 AM,21.9,19.9,92,30.13,2.5,SSW,4.6,-,N/A,,Mostly Cloudy,200,2013-02-03 12:52:00
4:55 AM,21.2,19.4,93,30.24,3.0,SSW,4.6,-,N/A,,Scattered Clouds,200,2013-02-03 12:55:00
5:38 AM,19.4,17.6,93,30.24,4.0,Calm,Calm,-,N/A,,Mostly Cloudy,0,2013-02-03 13:38:00
5:42 AM,19.4,17.6,93,30.24,1.8,Calm,Calm,-,N/A,,Mostly Cloudy,0,2013-02-03 13:42:00
5:56 AM,18.0,16.0,92,30.13,0.5,Calm,Calm,-,N/A,Fog,Light Freezing Fog,0,2013-02-03 13:56:00
6:06 AM,19.4,17.6,93,30.24,0.5,Calm,Calm,-,N/A,Fog,Light Freezing Fog,0,2013-02-03 14:06:00
6:13 AM,19.4,17.6,93,30.24,0.2,Calm,Calm,-,N/A,Fog,Light Freezing Fog,0,2013-02-03 14:13:00
6:22 AM,19.4,17.6,93,30.24,1.0,Calm,Calm,-,N/A,,Mist,0,2013-02-03 14:22:00
6:32 AM,19.4,17.6,93,30.24,0.2,Calm,Calm,-,N/A,Fog,Light Freezing Fog,0,2013-02-03 14:32:00
6:41 AM,19.4,17.6,93,30.25,0.8,Calm,Calm,-,N/A,,Mist,0,2013-02-03 14:41:00
6:48 AM,19.4,17.6,93,30.25,2.0,Calm,Calm,-,N/A,,Mostly Cloudy,0,2013-02-03 14:48:00
6:56 AM,19.9,17.1,89,30.14,5.0,Calm,Calm,-,N/A,,Mostly Cloudy,0,2013-02-03 14:56:00
7:03 AM,19.4,17.6,93,30.25,0.8,Calm,Calm,-,N/A,,Mist,0,2013-02-03 15:03:00
7:16 AM,19.4,17.6,93,30.25,0.2,Calm,Calm,-,N/A,Fog,Light Freezing Fog,0,2013-02-03 15:16:00
7:39 AM,23.0,19.4,86,30.26,0.5,Calm,Calm,-,N/A,Fog,Light Freezing Fog,0,2013-02-03 15:39:00
7:48 AM,21.2,19.4,93,30.26,2.0,Calm,Calm,-,N/A,,Clear,0,2013-02-03 15:48:00
7:56 AM,23.0,19.9,88,30.15,3.0,North,4.6,-,N/A,,Clear,360,2013-02-03 15:56:00
8:56 AM,32.0,28.9,88,30.16,10.0,Calm,Calm,-,N/A,,Overcast,0,2013-02-03 16:56:00
9:56 AM,37.0,30.0,76,30.16,10.0,SSW,3.5,-,N/A,,Overcast,200,2013-02-03 17:56:00
10:56 AM,39.9,32.0,73,30.16,10.0,SW,4.6,-,N/A,,Partly Cloudy,220,2013-02-03 18:56:00
11:02 AM,39.2,32.0,75,30.27,10.0,SW,4.6,-,N/A,,Scattered Clouds,220,2013-02-03 19:02:00
11:56 AM,44.1,30.9,60,30.13,10.0,Calm,Calm,-,N/A,,Scattered Clouds,0,2013-02-03 19:56:00
12:56 PM,48.0,30.9,52,30.10,10.0,Calm,Calm,-,N/A,,Partly Cloudy,0,2013-02-03 20:56:00
1:56 PM,52.0,30.9,45,30.09,10.0,ENE,5.8,-,N/A,,Partly Cloudy,60,2013-02-03 21:56:00
2:56 PM,54.0,30.0,40,30.09,10.0,North,4.6,-,N/A,,Partly Cloudy,360,2013-02-03 22:56:00
3:56 PM,54.0,28.0,37,30.10,10.0,NNE,6.9,-,N/A,,Partly Cloudy,30,2013-02-03 23:56:00
4:56 PM,51.1,27.0,39,30.08,10.0,East,5.8,-,N/A,,Partly Cloudy,90,2013-02-04 00:56:00
5:56 PM,42.1,26.1,53,30.09,10.0,Calm,Calm,-,N/A,,Partly Cloudy,0,2013-02-04 01:56:00
6:56 PM,36.0,24.1,62,30.09,10.0,North,4.6,-,N/A,,Clear,360,2013-02-04 02:56:00
7:56 PM,33.1,24.1,70,30.10,10.0,Calm,Calm,-,N/A,,Clear,0,2013-02-04 03:56:00
8:56 PM,28.9,21.0,72,30.10,10.0,Calm,Calm,-,N/A,,Clear,0,2013-02-04 04:56:00
9:56 PM,28.9,21.9,75,30.11,10.0,South,8.1,-,N/A,,Clear,170,2013-02-04 05:56:00
10:56 PM,28.9,21.0,72,30.11,10.0,Calm,Calm,-,N/A,,Clear,0,2013-02-04 06:56:00
11:56 PM,27.0,21.0,78,30.12,10.0,Calm,Calm,-,N/A,,Clear,0,2013-02-04 07:56:00